Regional Weather Roundup
Issued by NWS Albany, NY

Home | Current Version | Previous Version | Graphics & Text | Print | Product List | Glossary Off
Versions: 1 2 3 4 5 6 7 8 9 10 11 12 13 14 15 16 17 18 19 20 21 22 23 24 25 26 27 28 29 30 31 32 33 34 35 36 37 38 39 40 41 42 43 44 45 46 47 48 49 50

486
ASUS41 KALY 180110
RWRALY

NEW YORK STATE HOURLY WEATHER ROUNDUP
NATIONAL WEATHER SERVICE ALBANY NY
900 PM EDT THU AUG 17 2017

NOTE: "FAIR" INDICATES FEW OR NO CLOUDS BELOW 12,000 FEET WITH NO
SIGNIFICANT WEATHER AND/OR NO OBSTRUCTIONS TO VISIBILITY.

NYZ032-033-038>043-046>054-057>066-NYZ062>081-082-084-180200-
EAST


CITY           SKY/WX    TMP DP  RH WIND       PRES   REMARKS
ALBANY         CLOUDY    71  54  54 CALM      29.96S
GLENS FALLS    PTCLDY    61  55  81 CALM      29.97R
POUGHKEEPSIE   MOCLDY    74  61  63 SE7       29.96R
NEWBURGH       PTCLDY    75  64  69 VRB6      29.99R
MONTGOMERY     MOCLDY    72  66  81 CALM      29.97R
WHITE PLAINS   CLEAR     70  61  73 S3        29.99S
ISLIP          PTCLDY    72  67  84 S8        30.00R
NEW YORK CITY  MOCLDY    75  69  81 SE7       29.98R
CENTRAL PARK   PTCLDY    74  68  81 VRB5      30.01S
$$

NYZ005>009-017-018-044>046-055-056-180200-
CENTRAL


CITY           SKY/WX    TMP DP  RH WIND       PRES   REMARKS
FULTON         CLOUDY    73  59  61 VRB5      29.87S
SYRACUSE       CLOUDY    71  62  73 E8        29.87S
ROME           LGT RAIN  70  60  70 E7        29.92S
ELMIRA         CLOUDY    79  68  69 SW5       29.89F
BINGHAMTON     CLOUDY    73  63  70 S6        29.95S
MONTICELLO     CLOUDY    70  64  81 SE5       30.01S
$$

NYZ026>034-041>043-087-180200-
NORTH


CITY           SKY/WX    TMP DP  RH WIND       PRES   REMARKS
WATERTOWN      CLOUDY    70  60  70 E5        29.87F
FORT DRUM      NOT AVBL
OGDENSBURG     LGT RAIN  67  60  77 E3        29.90F
MASSENA        PTCLDY    68  61  78 E3        29.93S
SARANAC LAKE   MOCLDY    60  59  96 CALM      29.97S
PLATTSBURGH    PTCLDY    63  59  87 CALM      29.95S
$$

NYZ001>004-010>016-019>021-085-180200-
WEST


CITY           SKY/WX    TMP DP  RH WIND       PRES   REMARKS
NIAGARA FALLS  LGT RAIN  74  69  85 SE6       29.79F
BUFFALO        LGT RAIN  75  71  87 S6        29.80F
DUNKIRK        LGT RAIN  74  71  91 S8        29.79F FOG
JAMESTOWN      LGT RAIN  70  70 100 S7        29.86F FOG
WELLSVILLE     LGT RAIN  75  66  73 S12       29.93F
ROCHESTER      LGT RAIN  75  66  73 SE8       29.82F
PENN YAN       LGT RAIN  76  66  71 S5        29.88F
$$

             KEY
       WCI = WIND CHILL INDEX
       VSB = VISIBILITY
       HX  = HEAT INDEX
$$




USA.gov is the U.S. government's official web portal to all federal, state and local government web resources and services.